Terminal Aerodrome Forecast
Issued by NWS Dallas/Fort Worth, TX

Home | Current Version | Previous Version | Text Only | Print | Product List | Glossary On
Versions: 1 2 3 4 5 6 7 8 9 10 11 12 13 14 15 16 17 18 19 20 21 22 23 24 25 26 27 28 29 30 31 32 33 34
000
FTUS44 KFWD 020520
TAFACT
TAF
KACT 020520Z 0206/0306 34008KT 3SM BR OVC005
      TEMPO 0208/0212 1SM -DZ OVC003
     FM021600 01010KT 5SM BR OVC007
     FM030200 VRB03KT 2SM BR OVC005=

USA.gov is the U.S. government's official web portal to all federal, state and local government web resources and services.